Jacksonville, AR

7:15 AM CST on February 08, 2016 (GMT -0600)
Little Rock Air Force Base

Weather History for KLRF - May, 2013

Change the Weather History Date:

Friday, May 10, 2013

  Actual Average Record
Temperature  
Mean Temperature 70 °F -  
Max Temperature 77 °F 77 °F 90 °F (1973)
Min Temperature 63 °F 54 °F 43 °F (1966)
Cooling Degree Days 4    
Growing Degree Days 20 (Base 50)    
Moisture  
Dew Point 65 °F    
Average Humidity 90    
Maximum Humidity 100    
Minimum Humidity 56    
Precipitation  
Precipitation 0.66 in - - ()
Sea Level Pressure  
Sea Level Pressure 29.94 in    
Wind  
Wind Speed 5 mph (WSW)    
Max Wind Speed 12 mph    
Max Gust Speed -    
Visibility 8 miles    
Events Rain    
Averages and records for this station are not official NWS values.
T = Trace of Precipitation, MM = Missing Value Source: NWS Daily Summary

Daily Weather History Graph

Daily Weather History Graph

Search for Another Location

Airport or City:

Trip Planner

Search our weather history database for the weather conditions in past years. The results will help you decide how hot, cold, wet, or windy it might be!

Date:

Astronomy

May. 10, 2013 Rise Set
Actual Time 6:09 AM CDT 8:01 PM CDT
Civil Twilight 5:41 AM CDT 8:29 PM CDT
Nautical Twilight 5:07 AM CDT 9:02 PM CDT
Astronomical Twilight 4:32 AM CDT 9:38 PM CDT
Moon 6:33 AM CDT (5/10) 8:50 PM CDT (5/10)
Length of Visible Light 14h 47m
Length of Day
13h 52m
New Moon, 0% of the Moon is Illuminated
May 10
New Moon
May 17
First Quarter
May 24
Full
May 31
Last Quarter
Jun 8
New

Hourly Weather History & Observations

Time (CDT) Temp. Dew Point Humidity Pressure Visibility Wind Dir Wind Speed Gust Speed Precip Events Conditions
12:08 AM 66.2 °F 66.2 °F 100% 29.96 in 9.0 mi WNW 4.6 mph - N/A Rain Light Rain
12:18 AM 66.2 °F 66.2 °F 100% 29.97 in 2.5 mi WSW 5.8 mph - N/A Rain Light Rain
12:23 AM 66.2 °F 66.2 °F 100% 29.97 in 1.2 mi SW 8.1 mph - N/A Rain Heavy Rain
12:28 AM 66.2 °F 66.2 °F 100% 29.97 in 1.5 mi SW 8.1 mph - N/A Rain Light Rain
12:33 AM 66.2 °F 66.2 °F 100% 29.96 in 3.0 mi WSW 8.1 mph - N/A Rain Rain
12:53 AM 66.2 °F 66.2 °F 100% 29.96 in 3.0 mi WSW 6.9 mph - N/A Rain Rain
12:58 AM 66.4 °F 66.2 °F 99% 29.96 in 5.0 mi SW 5.8 mph - 0.31 in Rain Light Rain
1:08 AM 66.2 °F 66.2 °F 100% 29.95 in 10.0 mi South 6.9 mph - N/A Rain Light Rain
1:13 AM 66.2 °F 66.2 °F 100% 29.95 in 9.0 mi SSW 4.6 mph - N/A Rain Light Rain
1:18 AM 66.2 °F 66.2 °F 100% 29.95 in 5.0 mi SW 8.1 mph - N/A Rain Light Rain
1:23 AM 66.2 °F 66.2 °F 100% 29.94 in 2.0 mi SW 5.8 mph - N/A Rain Heavy Rain
1:28 AM 66.2 °F 66.2 °F 100% 29.94 in 1.8 mi WSW 4.6 mph - N/A Rain Rain
1:33 AM 66.2 °F 66.2 °F 100% 29.94 in 3.0 mi South 3.5 mph - N/A Rain Rain
1:38 AM 66.2 °F 66.2 °F 100% 29.94 in 5.0 mi South 4.6 mph - N/A Rain Light Rain
1:48 AM 66.2 °F 66.2 °F 100% 29.93 in 2.0 mi WSW 5.8 mph - N/A Rain Heavy Rain
1:53 AM 66.2 °F 66.2 °F 100% 29.93 in 1.5 mi WSW 9.2 mph - N/A Rain Light Rain
1:58 AM 65.8 °F 65.7 °F 99% 29.94 in 2.0 mi SW 6.9 mph - 0.31 in Rain Light Rain
2:03 AM 66.2 °F 66.2 °F 100% 29.92 in 3.0 mi SSW 2.3 mph - N/A Rain Light Rain
2:23 AM 66.2 °F 64.4 °F 94% 29.91 in 10.0 mi South 4.6 mph - N/A Rain Light Rain
2:24 AM 66.2 °F 64.4 °F 94% 29.91 in 10.0 mi SSE 3.5 mph - N/A   Scattered Clouds
2:58 AM 65.1 °F 64.8 °F 99% 29.89 in 10.0 mi SSW 2.3 mph - 0.03 in   Scattered Clouds
3:58 AM 64.4 °F 64.2 °F 99% 29.91 in 10.0 mi North 1.2 mph - N/A   Partly Cloudy
4:58 AM 64.0 °F 63.7 °F 99% 29.91 in 10.0 mi SSW 2.3 mph - N/A   Scattered Clouds
5:58 AM 63.9 °F 63.5 °F 99% 29.91 in 10.0 mi North 1.2 mph - N/A   Mostly Cloudy
6:58 AM 64.0 °F 63.7 °F 99% 29.93 in 10.0 mi West 4.6 mph - N/A   Partly Cloudy
7:58 AM 66.2 °F 64.4 °F 94% 29.93 in 10.0 mi SW 6.9 mph - N/A   Partly Cloudy
8:08 AM 66.2 °F 64.4 °F 94% 29.92 in 10.0 mi SW 8.1 mph - N/A   Mostly Cloudy
8:58 AM 66.6 °F 66.2 °F 99% 29.94 in 10.0 mi WSW 5.8 mph - N/A   Overcast
9:18 AM 66.2 °F 66.2 °F 100% 29.93 in 10.0 mi Calm Calm - N/A   Overcast
9:28 AM 68.0 °F 66.2 °F 94% 29.93 in 10.0 mi Calm Calm - N/A   Overcast
9:58 AM 69.1 °F 65.5 °F 88% 29.96 in 10.0 mi NNW 2.3 mph - N/A   Mostly Cloudy
10:03 AM 69.8 °F 64.4 °F 83% 29.96 in 10.0 mi Calm Calm - N/A   Mostly Cloudy
10:28 AM 69.8 °F 64.4 °F 83% 29.96 in 10.0 mi Variable 2.3 mph - N/A   Mostly Cloudy
10:58 AM 71.1 °F 64.8 °F 80% 29.96 in 10.0 mi WNW 5.8 mph - N/A   Mostly Cloudy
11:58 AM 73.9 °F 63.0 °F 68% 29.96 in 10.0 mi Variable 2.3 mph - N/A   Partly Cloudy
12:58 PM 76.5 °F 61.5 °F 60% 29.94 in 10.0 mi NW 4.6 mph - N/A   Mostly Cloudy
1:58 PM 75.4 °F 61.2 °F 61% 29.92 in 10.0 mi NNW 4.6 mph - N/A   Mostly Cloudy
2:58 PM 76.8 °F 60.3 °F 56% 29.91 in 10.0 mi NNW 1.2 mph - N/A   Mostly Cloudy
3:58 PM 76.3 °F 62.8 °F 63% 29.91 in 10.0 mi West 11.5 mph - N/A   Scattered Clouds
4:58 PM 75.4 °F 61.9 °F 63% 29.91 in 10.0 mi WSW 5.8 mph - N/A   Partly Cloudy
5:29 PM 73.4 °F 64.4 °F 73% 29.90 in 10.0 mi SSW 5.8 mph - N/A   Light Drizzle
5:58 PM 72.7 °F 65.8 °F 79% 29.88 in 10.0 mi NW 2.3 mph - 0.01 in Rain Light Rain
6:06 PM 73.4 °F 66.2 °F 78% 29.88 in 10.0 mi WNW 2.3 mph - N/A   Partly Cloudy
6:58 PM 73.6 °F 64.0 °F 72% 29.89 in 10.0 mi WSW 4.6 mph - 0.00 in   Clear
7:58 PM 70.3 °F 65.7 °F 85% 29.91 in 10.0 mi North 4.6 mph - N/A   Clear
8:58 PM 66.0 °F 64.6 °F 95% 29.93 in 10.0 mi SSW 1.2 mph - N/A   Partly Cloudy
9:58 PM 67.6 °F 65.8 °F 94% 29.96 in 10.0 mi WNW 2.3 mph - N/A   Scattered Clouds
10:58 PM 68.7 °F 63.7 °F 84% 29.99 in 10.0 mi Calm Calm - N/A   Mostly Cloudy
11:58 PM 66.9 °F 59.7 °F 78% 30.01 in 10.0 mi North 3.5 mph - N/A   Partly Cloudy